Weather History for KRFD - September, 2012

Change the Weather History Date:

Tuesday, September 18, 2012

  Actual Average Record
Temperature  
Mean Temperature 52 °F 63 °F  
Max Temperature 63 °F 75 °F 92 °F (1920)
Min Temperature 41 °F 51 °F 32 °F (1929)
Degree Days  
Heating Degree Days 13 4  
Month to date heating degree days 35 40  
Since 1 July heating degree days 37 54  
Cooling Degree Days 0 2  
Month to date cooling degree days 92 67  
Year to date cooling degree days 1221 794  
Growing Degree Days 4 (Base 50)    
Moisture  
Dew Point 37 °F    
Average Humidity 62    
Maximum Humidity 93    
Minimum Humidity 30    
Precipitation  
Precipitation 0.00 in 0.11 in 2.53 in (1960)
Month to date precipitation 1.50 2.06  
Year to date precipitation 17.60 27.72  
Snow  
Snow 0.00 in 0.00 in 0.00 in ()
Month to date snowfall 0.0 0.0  
Since 1 July snowfall 0.0 0.0  
Since 1 September snowfall 0.0 0.0  
Snow Depth 0.00 in    
Sea Level Pressure  
Sea Level Pressure 29.96 in    
Wind  
Wind Speed 9 mph (NNW)    
Max Wind Speed 18 mph    
Max Gust Speed 26 mph    
Visibility 10 miles    
Events      
T = Trace of Precipitation, MM = Missing Value Source: NWS Daily Summary

Daily Weather History Graph

Daily Weather History Graph

Search for Another Location

Airport or City:

Trip Planner

Search our weather history database for the weather conditions in past years. The results will help you decide how hot, cold, wet, or windy it might be!

Date:

Astronomy

Sep. 18, 2012 Rise Set
Actual Time 6:40 AM CDT 6:59 PM CDT
Civil Twilight 6:12 AM CDT 7:27 PM CDT
Nautical Twilight 5:39 AM CDT 8:00 PM CDT
Astronomical Twilight 5:05 AM CDT 8:34 PM CDT
Moon 9:44 AM CDT (9/18) 8:17 PM CDT (9/18)
Length of Visible Light 13h 15m
Length of Day
12h 19m
Waxing Crescent, 9% of the Moon is Illuminated
Sep 18
Waxing Crescent
Sep 22
First Quarter
Sep 29
Full
Oct 8
Last Quarter
Oct 15
New

Hourly Weather History & Observations

Time (CDT) Temp. Windchill Dew Point Humidity Pressure Visibility Wind Dir Wind Speed Gust Speed Precip Events Conditions
12:54 AM 51.1 °F - 46.0 °F 83% 29.86 in 10.0 mi NNW 10.4 mph - N/A   Partly Cloudy
1:54 AM 48.9 °F - 45.0 °F 86% 29.87 in 10.0 mi North 9.2 mph - N/A   Clear
2:54 AM 48.9 °F - 45.0 °F 86% 29.89 in 10.0 mi NNW 8.1 mph - N/A   Clear
3:54 AM 46.9 °F - 44.1 °F 90% 29.88 in 10.0 mi NNW 5.8 mph - N/A   Clear
4:54 AM 46.9 °F - 43.0 °F 86% 29.90 in 10.0 mi NW 9.2 mph - N/A   Clear
5:54 AM 46.0 °F 42.5 °F 42.1 °F 86% 29.91 in 10.0 mi NNW 6.9 mph - N/A   Partly Cloudy
6:54 AM 45.0 °F 39.3 °F 41.0 °F 86% 29.93 in 10.0 mi NNW 11.5 mph - N/A   Scattered Clouds
7:54 AM 46.9 °F - 42.1 °F 83% 29.95 in 10.0 mi NNW 11.5 mph - N/A   Partly Cloudy
8:54 AM 51.1 °F - 42.1 °F 71% 29.96 in 10.0 mi North 12.7 mph - N/A   Clear
9:54 AM 54.0 °F - 39.9 °F 59% 29.97 in 10.0 mi NNW 11.5 mph - N/A   Partly Cloudy
10:54 AM 57.0 °F - 37.0 °F 47% 29.98 in 10.0 mi NNW 18.4 mph 25.3 mph N/A   Partly Cloudy
11:54 AM 59.0 °F - 33.1 °F 38% 29.97 in 10.0 mi North 10.4 mph - N/A   Scattered Clouds
12:54 PM 60.1 °F - 33.1 °F 36% 29.98 in 10.0 mi NNW 13.8 mph 23.0 mph N/A   Scattered Clouds
1:54 PM 60.1 °F - 32.0 °F 35% 29.96 in 10.0 mi NNW 15.0 mph 19.6 mph N/A   Scattered Clouds
2:54 PM 63.0 °F - 30.9 °F 30% 29.96 in 10.0 mi West 16.1 mph 21.9 mph N/A   Mostly Cloudy
3:54 PM 60.1 °F - 30.0 °F 32% 29.97 in 10.0 mi WNW 13.8 mph 23.0 mph N/A   Scattered Clouds
4:54 PM 60.1 °F - 30.0 °F 32% 29.97 in 10.0 mi NW 9.2 mph - N/A   Mostly Cloudy
5:54 PM 59.0 °F - 28.9 °F 32% 29.99 in 10.0 mi NW 10.4 mph 18.4 mph N/A   Mostly Cloudy
6:54 PM 57.0 °F - 30.9 °F 37% 30.00 in 10.0 mi NW 6.9 mph - N/A   Mostly Cloudy
7:54 PM 53.1 °F - 33.1 °F 47% 30.02 in 10.0 mi NW 3.5 mph - N/A   Mostly Cloudy
8:34 PM 51.8 °F - 35.6 °F 54% 30.03 in 0.5 mi Calm Calm - N/A   Mostly Cloudy
8:41 PM 51.8 °F - 35.6 °F 54% 30.03 in 10.0 mi Calm Calm - N/A   Mostly Cloudy
8:54 PM 50.0 °F - 37.0 °F 61% 30.04 in 10.0 mi Calm Calm - N/A   Mostly Cloudy
9:54 PM 48.0 °F - 39.0 °F 71% 30.05 in 10.0 mi Calm Calm - N/A   Scattered Clouds
10:54 PM 44.1 °F - 37.9 °F 79% 30.05 in 10.0 mi Calm Calm - N/A   Partly Cloudy
11:54 PM 42.1 °F 40.2 °F 37.0 °F 82% 30.06 in 10.0 mi South 3.5 mph - N/A   Clear